Change the Weather History Date:

Friday, February 14, 2014

  Actual Average Record
Temperature  
Mean Temperature 35 °F 34 °F  
Max Temperature 42 °F 42 °F 66 °F (1946)
Min Temperature 27 °F 26 °F 0 °F (1916)
Degree Days  
Heating Degree Days 30 31  
Month to date heating degree days 524 452  
Since 1 July heating degree days 3609 3398  
Cooling Degree Days 0 0  
Month to date cooling degree days 0 0  
Year to date cooling degree days 0 0  
Moisture  
Dew Point 25 °F    
Average Humidity 68    
Maximum Humidity 92    
Minimum Humidity 43    
Precipitation  
Precipitation 0.07 in 0.08 in 1.18 in (2005)
Month to date precipitation 3.67 1.07  
Year to date precipitation 6.94 4.23  
Sea Level Pressure  
Sea Level Pressure 29.37 in    
Wind  
Wind Speed 12 mph (WNW)    
Max Wind Speed 24 mph    
Max Gust Speed 37 mph    
Visibility 6 miles    
Events Snow    
T = Trace of Precipitation, MM = Missing Value Source: NWS Daily Summary

Daily Weather History Graph

Daily Weather History Graph

Search for Another Location

Airport or City:

Trip Planner

Search our weather history database for the weather conditions in past years. The results will help you decide how hot, cold, wet, or windy it might be!

Date:

Astronomy

Feb. 14, 2014 Rise Set
Actual Time 6:53 AM EST 5:33 PM EST
Civil Twilight 6:25 AM EST 6:01 PM EST
Nautical Twilight 5:54 AM EST 6:33 PM EST
Astronomical Twilight 5:22 AM EST 7:05 PM EST
Moon 5:35 PM EST (2/14) 6:19 AM EST (2/14)
Length of Visible Light 11h 35m
Length of Day
10h 39m
Full, 100% of the Moon is Illuminated
Feb 14
Full
Feb 14
Full
Feb 22
Last Quarter
Mar 1
New
Mar 8
First Quarter

Hourly Weather History & Observations

Time (EST) Temp. Windchill Dew Point Humidity Pressure Visibility Wind Dir Wind Speed Gust Speed Precip Events Conditions
12:22 AM 32.0 °F 21.6 °F 30.0 °F 92% 29.10 in 0.8 mi NW 15.0 mph - 0.02 in Snow Light Snow
12:31 AM 32.0 °F 21.6 °F 30.0 °F 92% 29.11 in 1.0 mi NW 15.0 mph 26.5 mph 0.02 in Snow Light Snow
12:53 AM 32.0 °F 21.6 °F 30.0 °F 92% 29.11 in 1.8 mi NW 15.0 mph 23.0 mph 0.03 in Snow Light Snow
1:03 AM 32.0 °F 22.1 °F 28.9 °F 88% 29.13 in 2.0 mi WNW 13.8 mph 26.5 mph 0.00 in Snow Light Snow
1:10 AM 32.0 °F 22.1 °F 28.9 °F 88% 29.13 in 2.5 mi WNW 13.8 mph 23.0 mph 0.00 in Snow Light Snow
1:12 AM 32.0 °F 22.5 °F 28.9 °F 88% 29.13 in 2.0 mi WNW 12.7 mph 23.0 mph 0.00 in Snow Light Snow
1:21 AM 32.0 °F 21.6 °F 28.9 °F 88% 29.13 in 1.8 mi NW 15.0 mph 26.5 mph 0.00 in Snow Light Snow
1:46 AM 30.9 °F 20.2 °F 28.9 °F 92% 29.14 in 1.2 mi WNW 15.0 mph 26.5 mph 0.01 in Snow Light Snow
1:53 AM 30.9 °F 20.2 °F 28.9 °F 92% 29.14 in 1.2 mi WNW 15.0 mph 25.3 mph 0.01 in Snow Light Snow
2:33 AM 30.9 °F 19.4 °F 28.0 °F 89% 29.16 in 0.8 mi WNW 17.3 mph 25.3 mph 0.01 in Snow Light Snow
2:39 AM 30.9 °F 19.4 °F 28.0 °F 89% 29.16 in 1.0 mi WNW 17.3 mph 26.5 mph 0.01 in   Overcast
2:53 AM 30.9 °F 19.8 °F 28.0 °F 89% 29.16 in 1.0 mi WNW 16.1 mph 29.9 mph 0.01 in Snow Light Snow
3:03 AM 30.9 °F 21.2 °F 28.0 °F 89% 29.18 in 0.8 mi WNW 12.7 mph 29.9 mph 0.01 in Snow Light Snow
3:13 AM 30.9 °F 21.2 °F 28.9 °F 92% 29.18 in 1.0 mi WNW 12.7 mph 20.7 mph 0.01 in Snow Light Snow
3:35 AM 30.9 °F 20.2 °F 28.9 °F 92% 29.19 in 3.0 mi WNW 15.0 mph 25.3 mph 0.01 in Snow Light Snow
3:53 AM 33.1 °F 22.6 °F 27.0 °F 78% 29.19 in 10.0 mi WNW 16.1 mph 32.2 mph 0.02 in   Overcast
4:53 AM 33.1 °F 23.0 °F 26.1 °F 75% 29.23 in 10.0 mi West 15.0 mph 29.9 mph N/A   Partly Cloudy
5:53 AM 33.1 °F 21.9 °F 26.1 °F 75% 29.29 in 10.0 mi WNW 18.4 mph 34.5 mph N/A   Partly Cloudy
6:53 AM 33.1 °F 21.2 °F 25.0 °F 72% 29.33 in 10.0 mi WNW 20.7 mph 34.5 mph N/A   Clear
7:53 AM 33.1 °F 23.4 °F 24.1 °F 70% 29.38 in 10.0 mi West 13.8 mph 21.9 mph N/A   Clear
8:53 AM 34.0 °F 23.8 °F 23.0 °F 64% 29.43 in 10.0 mi West 16.1 mph 27.6 mph N/A   Clear
9:53 AM 36.0 °F 26.0 °F 18.0 °F 48% 29.47 in 10.0 mi West 17.3 mph 27.6 mph N/A   Clear
10:53 AM 37.0 °F 27.7 °F 19.9 °F 50% 29.49 in 10.0 mi West 16.1 mph 27.6 mph N/A   Clear
11:53 AM 39.9 °F 32.1 °F 23.0 °F 51% 29.50 in 10.0 mi West 13.8 mph 27.6 mph N/A   Mostly Cloudy
12:53 PM 39.9 °F 31.1 °F 24.1 °F 53% 29.51 in 10.0 mi West 17.3 mph 29.9 mph N/A   Overcast
1:53 PM 39.9 °F 31.4 °F 24.1 °F 53% 29.54 in 10.0 mi West 16.1 mph 32.2 mph N/A   Overcast
2:53 PM 41.0 °F 32.8 °F 23.0 °F 49% 29.55 in 10.0 mi WNW 16.1 mph 28.8 mph N/A   Scattered Clouds
3:53 PM 42.1 °F 36.6 °F 21.9 °F 45% 29.59 in 10.0 mi West 9.2 mph 25.3 mph N/A   Mostly Cloudy
4:53 PM 41.0 °F 36.4 °F 21.9 °F 47% 29.61 in 10.0 mi West 6.9 mph 21.9 mph N/A   Partly Cloudy
5:53 PM 39.0 °F 34.8 °F 21.9 °F 50% 29.65 in 10.0 mi West 5.8 mph - N/A   Clear
6:53 PM 37.9 °F 33.5 °F 21.9 °F 53% 29.73 in 10.0 mi West 5.8 mph - N/A   Clear
7:53 PM 35.1 °F - 21.9 °F 59% 29.75 in 10.0 mi Calm Calm - N/A   Clear
8:53 PM 36.0 °F 33.3 °F 23.0 °F 59% 29.76 in 10.0 mi NNW 3.5 mph - N/A   Clear
9:53 PM 33.1 °F - 21.9 °F 64% 29.75 in 10.0 mi Calm Calm - N/A   Clear
10:53 PM 30.0 °F - 21.9 °F 72% 29.76 in 8.0 mi Calm Calm - N/A   Clear
11:53 PM 28.0 °F 24.2 °F 21.9 °F 78% 29.76 in 9.0 mi North 3.5 mph - N/A   Mostly Cloudy